Location: Bégole
(43.1574°N, 0.3291°E)
Time: 02:37:13
(UTC+00:00)

COSMOS 2455 - Pass Details

Date: 28 January 2023
Orbit: 898 x 911 km, 67.1° (Epoch: 27 March)

Event Time Altitude Azimuth Distance (km) Brightness Sun altitude
Rises 18:12:45 0° 214° (SW) 3,508 6.7 -12.5°
Reaches altitude 10° 18:15:15 10° 217° (SW) 2,573 6.0 -12.9°
Maximum altitude 18:21:13 74° 302° (WNW) 944 3.1 -14.0°
Drops below altitude 10° 18:27:15 10° 27° (NNE) 2,597 4.9 -15.1°
Enters shadow 18:28:03 - 28° (NNE) 2,899 5.1 -15.2°
